N4XWC Weather Reports


Display with metric or nautical units.
time (UTC)temp
F
wind
direction
speed
MPH
gust
MPH
rain 1hr
in
rain 24hr
in
rain mn
in
humidity
%
barometer
mb
20260901204156 92 51 3.0 5.0 0.00 0.00 0.00 56 1016.7
20260901203724 93 30 2.0 6.0 0.00 0.00 0.00 57 1016.7
20260901203222 93 0 0.0 0.0 0.00 0.00 0.00 56 1016.7
20260901203157 92 0 0.0 0.0 0.00 0.00 0.00 56 1016.7
20260901202723 92 56 0.0 1.0 0.00 0.00 0.00 53 1016.8
20260901202223 92 61 4.0 6.0 0.00 0.00 0.00 56 1016.8
20260901202155 92 13 2.0 5.0 0.00 0.00 0.00 56 1016.8
20260901201723 92 152 1.0 2.0 0.00 0.00 0.00 57 1016.8
20260901201224 92 147 0.0 2.0 0.00 0.00 0.00 53 1017.0
20260901201206 92 143 2.0 3.0 0.00 0.00 0.00 53 1017.0
20260901200723 92 61 1.0 4.0 0.00 0.00 0.00 55 1017.0
20260901200223 92 109 3.0 6.0 0.00 0.00 0.00 54 1017.0
20260901200156 92 110 6.0 6.0 0.00 0.00 0.00 54 1017.0
20260901195724 92 52 0.0 3.0 0.00 0.00 0.00 53 1017.1
20260901195222 92 83 3.0 3.0 0.00 0.00 0.00 52 1017.1
20260901195157 92 79 4.0 4.0 0.00 0.00 0.00 54 1017.1
20260901194723 92 120 0.0 2.0 0.00 0.00 0.00 57 1017.1
20260901194223 92 103 3.0 3.0 0.00 0.00 0.00 57 1017.3
20260901194155 92 123 2.0 2.0 0.00 0.00 0.00 57 1017.3
20260901193723 92 65 1.0 3.0 0.00 0.00 0.00 55 1017.3
20260901193222 92 116 3.0 6.0 0.00 0.00 0.00 55 1017.3
20260901193156 92 96 3.0 3.0 0.00 0.00 0.00 55 1017.3
20260901192722 92 313 0.0 1.0 0.00 0.00 0.00 55 1017.6
20260901192222 91 3 2.0 2.0 0.00 0.00 0.00 53 1017.6
20260901192156 91 51 1.0 5.0 0.00 0.00 0.00 53 1017.6
20260901191723 91 82 2.0 2.0 0.00 0.00 0.00 55 1017.6
20260901191223 91 192 0.0 1.0 0.00 0.00 0.00 61 1017.6
20260901191155 91 176 1.0 2.0 0.00 0.00 0.00 57 1017.6
20260901190723 90 38 1.0 2.0 0.00 0.00 0.00 54 1017.6
20260901190222 90 100 4.0 4.0 0.00 0.00 0.00 59 1017.6
20260901190157 90 119 3.0 3.0 0.00 0.00 0.00 59 1017.6
20260901185722 90 192 2.0 2.0 0.00 0.00 0.00 57 1017.8
20260901185222 90 56 3.0 5.0 0.00 0.00 0.00 59 1017.8
20260901185155 90 103 5.0 6.0 0.00 0.00 0.00 59 1017.8
20260901184723 90 120 1.0 3.0 0.00 0.00 0.00 56 1017.8
20260901184223 91 116 2.0 2.0 0.00 0.00 0.00 60 1017.9
20260901184157 90 172 0.0 0.0 0.00 0.00 0.00 58 1017.9
20260901183723 90 271 0.0 1.0 0.00 0.00 0.00 56 1017.9
20260901183223 91 141 2.0 5.0 0.00 0.00 0.00 58 1017.9
20260901183156 91 88 1.0 3.0 0.00 0.00 0.00 58 1017.9
20260901182724 91 138 3.0 6.0 0.00 0.00 0.00 58 1018.0
20260901182224 91 95 0.0 1.0 0.00 0.00 0.00 60 1018.0
20260901182156 91 95 0.0 3.0 0.00 0.00 0.00 60 1018.0
20260901181722 91 354 3.0 3.0 0.00 0.00 0.00 62 1018.0
20260901181223 90 49 1.0 2.0 0.00 0.00 0.00 58 1018.2
20260901181157 90 65 1.0 3.0 0.00 0.00 0.00 58 1018.2
20260901180723 90 51 1.0 3.0 0.00 0.00 0.00 59 1018.2
20260901180223 90 64 1.0 3.0 0.00 0.00 0.00 63 1018.2
20260901180157 90 90 3.0 3.0 0.00 0.00 0.00 63 1018.2
20260901175724 90 10 0.0 0.0 0.00 0.00 0.00 60 1018.3
20260901175224 90 52 2.0 2.0 0.00 0.00 0.00 60 1018.3
20260901175156 90 52 2.0 5.0 0.00 0.00 0.00 60 1018.3
20260901174722 90 0 0.0 0.0 0.00 0.00 0.00 58 1018.3
20260901174223 90 28 2.0 3.0 0.00 0.00 0.00 58 1018.4
20260901174156 90 1 1.0 3.0 0.00 0.00 0.00 58 1018.4
20260901173722 91 68 3.0 3.0 0.00 0.00 0.00 58 1018.4
20260901173223 91 3 0.0 0.0 0.00 0.00 0.00 64 1018.4
20260901173156 91 3 0.0 0.0 0.00 0.00 0.00 64 1018.4
20260901172723 91 3 0.0 2.0 0.00 0.00 0.00 61 1018.6
20260901172224 91 100 4.0 4.0 0.00 0.00 0.00 57 1018.6
20260901172156 91 127 4.0 6.0 0.00 0.00 0.00 57 1018.6
20260901171722 91 100 2.0 2.0 0.00 0.00 0.00 59 1018.6
20260901171222 91 65 0.0 1.0 0.00 0.00 0.00 62 1018.8
20260901171155 91 103 1.0 1.0 0.00 0.00 0.00 62 1018.8
20260901170723 91 152 1.0 3.0 0.00 0.00 0.00 59 1018.8
20260901170223 90 55 0.0 1.0 0.00 0.00 0.00 58 1018.8
20260901170156 90 55 2.0 2.0 0.00 0.00 0.00 58 1018.8
20260901165723 91 69 3.0 4.0 0.00 0.00 0.00 58 1018.8
20260901165224 90 181 1.0 2.0 0.00 0.00 0.00 58 1018.8
20260901165156 90 152 0.0 1.0 0.00 0.00 0.00 58 1018.8
20260901164722 90 4 2.0 3.0 0.00 0.00 0.00 62 1018.8
20260901164222 90 93 0.0 1.0 0.00 0.00 0.00 63 1018.9
20260901164201 90 93 0.0 0.0 0.00 0.00 0.00 63 1018.9
20260901163722 90 69 2.0 2.0 0.00 0.00 0.00 64 1018.9
20260901163223 90 136 0.0 0.0 0.00 0.00 0.00 62 1018.9
20260901163155 90 136 0.0 0.0 0.00 0.00 0.00 62 1018.9
20260901162722 90 113 2.0 3.0 0.00 0.00 0.00 60 1019.1
20260901162223 90 52 1.0 1.0 0.00 0.00 0.00 63 1019.1
20260901162156 90 76 1.0 2.0 0.00 0.00 0.00 63 1019.1
20260901161723 90 202 0.0 0.0 0.00 0.00 0.00 63 1019.1
20260901161222 90 160 0.0 0.0 0.00 0.00 0.00 62 1019.2
20260901161157 90 160 0.0 1.0 0.00 0.00 0.00 63 1019.2
20260901160722 89 275 0.0 0.0 0.00 0.00 0.00 64 1019.2
20260901160224 89 239 0.0 0.0 0.00 0.00 0.00 64 1019.2
20260901160156 89 219 0.0 0.0 0.00 0.00 0.00 64 1019.2
20260901155722 90 265 0.0 0.0 0.00 0.00 0.00 67 1019.2
20260901155222 90 200 1.0 2.0 0.00 0.00 0.00 67 1019.2
20260901155157 90 196 1.0 1.0 0.00 0.00 0.00 66 1019.2
20260901154723 90 222 0.0 1.0 0.00 0.00 0.00 66 1019.2
20260901154222 89 147 0.0 0.0 0.00 0.00 0.00 67 1019.3
20260901154157 89 147 0.0 0.0 0.00 0.00 0.00 67 1019.3
20260901153722 88 147 0.0 1.0 0.00 0.00 0.00 65 1019.3
20260901153223 88 184 1.0 2.0 0.00 0.00 0.00 71 1019.3
20260901153159 88 106 0.0 0.0 0.00 0.00 0.00 71 1019.3
20260901152723 87 106 0.0 0.0 0.00 0.00 0.00 74 1019.4
20260901152223 87 200 0.0 0.0 0.00 0.00 0.00 74 1019.4
20260901152156 87 200 0.0 1.0 0.00 0.00 0.00 74 1019.4
20260901151724 86 175 0.0 1.0 0.00 0.00 0.00 75 1019.4
20260901151222 86 154 3.0 3.0 0.00 0.00 0.00 74 1019.3
20260901151158 86 161 0.0 0.0 0.00 0.00 0.00 74 1019.3
20260901150722 86 145 1.0 1.0 0.00 0.00 0.00 74 1019.3
20260901150223 86 175 0.0 2.0 0.00 0.00 0.00 74 1019.3
20260901150157 86 162 0.0 1.0 0.00 0.00 0.00 74 1019.3
20260901145722 86 160 1.0 1.0 0.00 0.00 0.00 75 1019.4
20260901145222 85 89 0.0 0.0 0.00 0.00 0.00 76 1019.4
20260901145157 85 134 0.0 0.0 0.00 0.00 0.00 76 1019.4
20260901144723 85 148 0.0 0.0 0.00 0.00 0.00 76 1019.4
20260901144223 85 148 0.0 0.0 0.00 0.00 0.00 75 1019.3
20260901144156 85 148 0.0 0.0 0.00 0.00 0.00 75 1019.3
20260901143723 85 104 0.0 1.0 0.00 0.00 0.00 75 1019.3
20260901143223 86 104 1.0 2.0 0.00 0.00 0.00 73 1019.3
20260901143156 86 169 1.0 2.0 0.00 0.00 0.00 72 1019.3
20260901142724 85 100 2.0 2.0 0.00 0.00 0.00 73 1019.3
20260901142222 85 155 1.0 3.0 0.00 0.00 0.00 73 1019.3
20260901142159 85 124 2.0 2.0 0.00 0.00 0.00 73 1019.3
20260901141722 84 109 0.0 2.0 0.00 0.00 0.00 74 1019.3
20260901141223 84 119 1.0 1.0 0.00 0.00 0.00 74 1019.2
20260901141157 84 119 0.0 1.0 0.00 0.00 0.00 74 1019.2
20260901140723 84 172 0.0 0.0 0.00 0.00 0.00 77 1019.2
20260901140224 84 141 3.0 4.0 0.00 0.00 0.00 77 1019.2
20260901140201 84 112 2.0 3.0 0.00 0.00 0.00 77 1019.2
20260901135722 83 158 0.0 0.0 0.00 0.00 0.00 77 1019.2
20260901135223 83 147 1.0 1.0 0.00 0.00 0.00 80 1019.2
20260901135156 83 174 0.0 1.0 0.00 0.00 0.00 80 1019.2
20260901134724 82 138 1.0 2.0 0.00 0.00 0.00 80 1019.2
20260901134222 82 130 0.0 0.0 0.00 0.00 0.00 80 1019.2
20260901134158 82 130 0.0 1.0 0.00 0.00 0.00 80 1019.2
20260901133722 81 110 0.0 1.0 0.00 0.00 0.00 81 1019.2
20260901133223 81 141 3.0 3.0 0.00 0.00 0.00 82 1019.2
20260901133155 81 131 2.0 2.0 0.00 0.00 0.00 82 1019.2
20260901132723 80 131 0.0 1.0 0.00 0.00 0.00 83 1019.3
20260901132223 80 126 2.0 2.0 0.00 0.00 0.00 83 1019.3
20260901132156 80 171 1.0 2.0 0.00 0.00 0.00 83 1019.3
20260901131723 80 165 0.0 2.0 0.00 0.00 0.00 84 1019.3
20260901131222 79 157 0.0 0.0 0.00 0.00 0.00 84 1019.3
20260901131200 79 157 0.0 1.0 0.00 0.00 0.00 84 1019.3
20260901130722 79 126 0.0 2.0 0.00 0.00 0.00 84 1019.3
20260901130223 78 140 1.0 3.0 0.00 0.00 0.00 85 1019.3
20260901130157 78 102 2.0 2.0 0.00 0.00 0.00 85 1019.3
20260901125724 78 113 1.0 2.0 0.00 0.00 0.00 85 1019.3
20260901125222 78 103 3.0 3.0 0.00 0.00 0.00 85 1019.3
20260901125200 78 93 0.0 2.0 0.00 0.00 0.00 85 1019.3
20260901124722 77 103 1.0 1.0 0.00 0.00 0.00 86 1019.3
20260901124223 77 102 2.0 2.0 0.00 0.00 0.00 86 1019.2
20260901124157 77 104 1.0 1.0 0.00 0.00 0.00 86 1019.2
20260901123723 77 80 1.0 1.0 0.00 0.00 0.00 87 1019.2
20260901123223 76 104 1.0 2.0 0.00 0.00 0.00 87 1019.2
20260901123159 76 99 2.0 2.0 0.00 0.00 0.00 87 1019.2
20260901122724 76 75 0.0 1.0 0.00 0.00 0.00 87 1019.2
20260901122224 76 85 1.0 2.0 0.00 0.00 0.00 87 1019.2
20260901122157 76 103 2.0 2.0 0.00 0.00 0.00 87 1019.2
20260901121722 76 93 2.0 2.0 0.00 0.00 0.00 87 1019.2
20260901121223 76 71 1.0 1.0 0.00 0.00 0.00 87 1018.9
20260901121157 76 79 1.0 2.0 0.00 0.00 0.00 87 1018.9
20260901120723 76 93 1.0 2.0 0.00 0.00 0.00 87 1018.9
20260901120223 76 99 2.0 2.0 0.00 0.00 0.00 87 1018.9
20260901120159 76 93 2.0 2.0 0.00 0.00 0.00 87 1018.9
20260901115723 76 114 0.0 2.0 0.00 0.00 0.00 87 1018.6
20260901115223 76 93 1.0 3.0 0.00 0.00 0.00 87 1018.6
20260901115156 75 95 1.0 2.0 0.00 0.00 0.00 87 1018.6
20260901114724 75 90 1.0 3.0 0.00 0.00 0.00 87 1018.6
20260901114250 75 76 1.0 1.0 0.00 0.00 0.00 87 1018.5
20260901114222 75 102 2.0 2.0 0.00 0.00 0.00 87 1018.5
20260901114157 75 76 1.0 1.0 0.00 0.00 0.00 87 1018.5
20260901113722 75 96 0.0 1.0 0.00 0.00 0.00 87 1018.5
20260901113223 75 90 0.0 2.0 0.00 0.00 0.00 87 1018.5
20260901113156 76 110 1.0 3.0 0.00 0.00 0.00 87 1018.5
20260901112723 76 88 1.0 2.0 0.00 0.00 0.00 87 1018.2
20260901112223 76 109 0.0 0.0 0.00 0.00 0.00 87 1018.2
20260901112156 76 99 0.0 0.0 0.00 0.00 0.00 87 1018.2
20260901111724 76 124 0.0 0.0 0.00 0.00 0.00 86 1018.2
20260901111222 76 110 0.0 0.0 0.00 0.00 0.00 86 1018.0
20260901111157 76 110 0.0 0.0 0.00 0.00 0.00 86 1018.0
20260901110722 76 113 0.0 0.0 0.00 0.00 0.00 86 1018.0
20260901110223 76 112 0.0 0.0 0.00 0.00 0.00 86 1018.0
20260901110157 76 104 0.0 0.0 0.00 0.00 0.00 86 1018.0
20260901105722 76 104 0.0 0.0 0.00 0.00 0.00 86 1017.9
20260901105222 76 92 0.0 0.0 0.00 0.00 0.00 86 1017.9
20260901105158 76 102 0.0 0.0 0.00 0.00 0.00 86 1017.9
20260901104722 76 90 0.0 0.0 0.00 0.00 0.00 86 1017.9
20260901104341 76 109 0.0 0.0 0.00 0.00 0.00 86 1017.9
20260901104223 76 114 0.0 0.0 0.00 0.00 0.00 86 1017.9
20260901104157 76 109 0.0 0.0 0.00 0.00 0.00 86 1017.9
20260901103723 76 103 0.0 0.0 0.00 0.00 0.00 86 1017.9
20260901103224 76 114 0.0 0.0 0.00 0.00 0.00 86 1017.9
20260901103155 76 110 0.0 0.0 0.00 0.00 0.00 86 1017.9
20260901102722 76 112 0.0 0.0 0.00 0.00 0.00 86 1017.9
20260901102222 75 116 0.0 0.0 0.00 0.00 0.00 87 1017.9
20260901102156 75 116 0.0 0.0 0.00 0.00 0.00 87 1017.9
20260901101723 75 138 0.0 0.0 0.00 0.00 0.00 87 1017.9
20260901101223 75 131 0.0 0.0 0.00 0.00 0.00 87 1017.9
20260901101158 75 128 0.0 0.0 0.00 0.00 0.00 87 1017.9
20260901100723 75 126 0.0 0.0 0.00 0.00 0.00 87 1017.9
20260901100224 75 140 0.0 0.0 0.00 0.00 0.00 87 1017.9
20260901100156 75 141 0.0 0.0 0.00 0.00 0.00 87 1017.9
20260901095722 76 126 0.0 0.0 0.00 0.00 0.00 87 1017.7
20260901095222 76 103 0.0 0.0 0.00 0.00 0.00 87 1017.7
20260901095157 76 121 0.0 0.0 0.00 0.00 0.00 87 1017.7
20260901094723 76 117 0.0 0.0 0.00 0.00 0.00 87 1017.7
20260901094223 76 110 0.0 0.0 0.00 0.00 0.00 87 1017.6
20260901094159 76 113 0.0 0.0 0.00 0.00 0.00 87 1017.6
20260901093723 76 116 0.0 0.0 0.00 0.00 0.00 86 1017.6
20260901093224 76 124 0.0 0.0 0.00 0.00 0.00 86 1017.6
20260901093156 76 124 0.0 0.0 0.00 0.00 0.00 86 1017.6
20260901092722 76 124 0.0 0.0 0.00 0.00 0.00 86 1017.5
20260901092222 76 112 0.0 0.0 0.00 0.00 0.00 86 1017.5
20260901092159 76 119 0.0 0.0 0.00 0.00 0.00 86 1017.5
20260901091723 76 110 0.0 0.0 0.00 0.00 0.00 86 1017.5
20260901091223 76 113 0.0 0.0 0.00 0.00 0.00 86 1017.4
20260901091156 76 102 0.0 1.0 0.00 0.00 0.00 86 1017.4
20260901090724 76 93 0.0 1.0 0.00 0.00 0.00 86 1017.4
20260901090222 76 116 2.0 2.0 0.00 0.00 0.00 86 1017.4
20260901090157 76 102 1.0 2.0 0.00 0.00 0.00 86 1017.4
20260901085722 76 100 0.0 0.0 0.00 0.00 0.00 85 1017.4
20260901085223 76 95 0.0 1.0 0.00 0.00 0.00 85 1017.4
20260901085155 76 93 0.0 2.0 0.00 0.00 0.00 85 1017.4
20260901084723 77 107 0.0 1.0 0.00 0.00 0.00 85 1017.4
20260901084223 77 119 0.0 2.0 0.00 0.00 0.00 85 1017.3
20260901084157 77 103 2.0 2.0 0.00 0.00 0.00 85 1017.3
20260901083723 77 86 1.0 2.0 0.00 0.00 0.00 85 1017.3
20260901083222 77 85 2.0 2.0 0.00 0.00 0.00 85 1017.3
20260901083157 77 92 1.0 3.0 0.00 0.00 0.00 85 1017.3
20260901082722 77 119 2.0 3.0 0.00 0.00 0.00 85 1017.1
20260901082222 77 97 1.0 2.0 0.00 0.00 0.00 85 1017.1
20260901082155 77 92 0.0 2.0 0.00 0.00 0.00 85 1017.1
20260901081722 77 95 0.0 1.0 0.00 0.00 0.00 85 1017.1
20260901081222 77 100 2.0 2.0 0.00 0.00 0.00 85 1017.1
20260901081156 77 95 2.0 3.0 0.00 0.00 0.00 85 1017.1
20260901080722 77 78 2.0 3.0 0.00 0.00 0.00 85 1017.1
20260901080223 77 96 3.0 3.0 0.00 0.00 0.00 85 1017.1
20260901080156 77 85 3.0 3.0 0.00 0.00 0.00 85 1017.1
20260901075723 77 93 1.0 2.0 0.00 0.00 0.00 85 1017.1
20260901075223 77 128 2.0 2.0 0.00 0.00 0.00 85 1017.1
20260901075156 77 112 2.0 2.0 0.00 0.00 0.00 85 1017.1
20260901074724 77 119 1.0 3.0 0.00 0.00 0.00 85 1017.1
20260901074223 77 119 1.0 2.0 0.00 0.00 0.00 85 1017.1
20260901074157 77 116 0.0 2.0 0.00 0.00 0.00 85 1017.1
20260901073723 77 102 2.0 2.0 0.00 0.00 0.00 85 1017.1
20260901073224 77 88 1.0 2.0 0.00 0.00 0.00 85 1017.1
20260901073157 77 96 1.0 2.0 0.00 0.00 0.00 85 1017.1
20260901072723 77 104 2.0 2.0 0.00 0.00 0.00 85 1017.0
20260901072223 77 78 1.0 2.0 0.00 0.00 0.00 82 1017.0
20260901072157 77 90 2.0 2.0 0.00 0.00 0.00 82 1017.0
20260901071723 78 93 1.0 1.0 0.00 0.00 0.00 82 1017.0
20260901071223 78 102 1.0 1.0 0.00 0.00 0.00 82 1017.1
20260901071156 78 102 1.0 2.0 0.00 0.00 0.00 82 1017.1
20260901070722 78 78 2.0 2.0 0.00 0.00 0.00 82 1017.1
20260901070543 78 86 2.0 2.0 0.00 0.00 0.00 82 1017.1
20260901070223 78 86 2.0 2.0 0.00 0.00 0.00 82 1017.1
20260901070157 78 86 2.0 2.0 0.00 0.00 0.00 82 1017.1
20260901065723 78 100 1.0 1.0 0.00 0.00 0.00 82 1017.1
20260901065223 78 112 0.0 0.0 0.00 0.00 0.00 82 1017.1
20260901065157 78 112 0.0 2.0 0.00 0.00 0.00 82 1017.1
20260901065034 78 100 1.0 2.0 0.00 0.00 0.00 81 1017.1
20260901064534 78 103 2.0 2.0 0.00 0.00 0.00 81 1017.1
20260901064157 78 93 1.0 1.0 0.00 0.00 0.00 81 1017.2
20260901064034 78 93 1.0 1.0 0.00 0.00 0.00 81 1017.2
20260901063535 78 106 2.0 2.0 0.00 0.00 0.00 81 1017.2
20260901063158 78 93 2.0 2.0 0.00 0.00 0.00 81 1017.2
20260901063038 78 93 2.0 2.0 0.00 0.00 0.00 81 1017.2
20260901062534 78 88 1.0 2.0 0.00 0.00 0.00 82 1017.3
20260901062157 78 106 0.0 2.0 0.00 0.00 0.00 82 1017.3
20260901062033 78 83 1.0 3.0 0.00 0.00 0.00 82 1017.3
20260901061533 78 99 2.0 2.0 0.00 0.00 0.00 82 1017.3
20260901061157 78 75 1.0 2.0 0.00 0.00 0.00 82 1017.2
20260901061033 78 92 2.0 2.0 0.00 0.00 0.00 82 1017.2
20260901060534 78 100 2.0 2.0 0.00 0.00 0.00 81 1017.2
20260901060157 79 90 1.0 1.0 0.00 0.00 0.00 81 1017.2
20260901060035 79 80 1.0 1.0 0.00 0.00 0.00 81 1017.2
20260901055533 79 119 0.0 2.0 0.00 0.00 0.00 81 1017.2
20260901055156 79 79 2.0 2.0 0.00 0.00 0.00 81 1017.2
20260901055034 79 79 2.0 2.0 0.00 0.00 0.00 81 1017.2
20260901054420 79 89 2.0 3.0 0.00 0.00 0.00 81 1017.2
20260901054403 79 96 1.0 2.0 0.00 0.00 0.00 82 1017.2
20260901054157 79 96 1.0 2.0 0.00 0.00 0.00 82 1017.2
20260901053920 79 72 2.0 2.0 0.00 0.00 0.00 82 1017.2
20260901053421 79 92 1.0 3.0 0.00 0.00 0.00 83 1017.2
20260901053157 79 75 2.0 3.0 0.00 0.00 0.00 84 1017.2
20260901052919 79 79 2.0 2.0 0.00 0.00 0.00 84 1017.2
20260901052420 79 85 2.0 2.0 0.00 0.00 0.00 85 1017.3
20260901052155 79 69 1.0 2.0 0.00 0.00 0.00 85 1017.3
20260901051920 79 73 1.0 2.0 0.00 0.00 0.00 84 1017.3
20260901051421 79 90 2.0 2.0 0.00 0.00 0.00 84 1017.3
20260901051156 79 73 1.0 1.0 0.00 0.00 0.00 84 1017.3
20260901050922 79 76 1.0 1.0 0.00 0.00 0.00 84 1017.3
20260901050420 80 109 2.0 2.0 0.00 0.00 0.00 84 1017.3
20260901050158 80 88 3.0 3.0 0.00 0.00 0.00 84 1017.3
20260901045919 80 88 3.0 3.0 0.00 0.00 0.00 84 1017.3
20260901045420 80 52 2.0 3.0 0.00 0.00 0.00 85 1017.4
20260901045159 80 58 2.0 2.0 0.00 0.00 0.00 85 1017.4
20260901044920 80 85 3.0 3.0 0.00 0.00 0.00 85 1017.4
20260901044420 80 71 3.0 4.0 0.00 0.00 0.00 85 1017.4
20260901044157 80 58 1.0 3.0 0.00 0.00 0.00 85 1017.4
20260901043920 80 73 2.0 3.0 0.00 0.00 0.00 86 1017.4
20260901043419 80 82 2.0 2.0 0.00 0.00 0.00 86 1017.4
20260901043202 80 71 1.0 3.0 0.00 0.00 0.00 86 1017.4
20260901042919 80 68 1.0 2.0 0.00 0.00 0.00 85 1017.4
20260901042419 80 95 1.0 2.0 0.00 0.00 0.00 85 1017.4
20260901042202 80 76 0.0 3.0 0.00 0.00 0.00 85 1017.4
20260901041920 80 99 1.0 2.0 0.00 0.00 0.00 84 1017.4
20260901041420 80 99 1.0 2.0 0.00 0.00 0.00 84 1017.4
20260901041156 80 88 1.0 2.0 0.00 0.00 0.00 84 1017.5
20260901040920 80 93 1.0 2.0 0.00 0.00 0.00 83 1017.5
20260901040421 80 88 2.0 2.0 0.00 0.00 0.00 83 1017.5
20260901040204 80 79 1.0 2.0 0.00 0.00 0.00 82 1017.5
20260901035919 80 83 1.0 2.0 0.00 0.00 0.00 82 1017.5
20260901035419 80 86 1.0 1.0 0.00 0.00 0.00 82 1017.4
20260901035156 80 90 2.0 2.0 0.00 0.00 0.00 82 1017.4
20260901034920 80 83 2.0 2.0 0.00 0.00 0.00 82 1017.4
20260901034420 80 78 1.0 1.0 0.00 0.00 0.00 82 1017.4
20260901034156 80 82 1.0 1.0 0.00 0.00 0.00 82 1017.5
20260901033920 80 83 1.0 1.0 0.00 0.00 0.00 82 1017.5
20260901033421 80 93 2.0 2.0 0.00 0.00 0.00 81 1017.5
20260901033156 80 69 2.0 2.0 0.00 0.00 0.00 81 1017.5
20260901032920 80 92 1.0 2.0 0.00 0.00 0.00 82 1017.5
20260901032419 80 89 0.0 2.0 0.00 0.00 0.00 82 1017.5
20260901032156 80 79 2.0 2.0 0.00 0.00 0.00 82 1017.5
20260901031921 80 89 1.0 2.0 0.00 0.00 0.00 82 1017.5
20260901031419 80 86 1.0 2.0 0.00 0.00 0.00 82 1017.5
20260901031155 80 58 0.0 1.0 0.00 0.00 0.00 82 1017.6
20260901030919 80 58 1.0 1.0 0.00 0.00 0.00 82 1017.6
20260901030420 80 58 1.0 1.0 0.00 0.00 0.00 82 1017.6
20260901030156 80 73 1.0 1.0 0.00 0.00 0.00 81 1017.6
20260901025920 80 66 1.0 1.0 0.00 0.00 0.00 81 1017.6
20260901025420 80 54 2.0 2.0 0.00 0.00 0.00 81 1017.7
20260901025156 80 65 1.0 3.0 0.00 0.00 0.00 81 1017.7
20260901024920 80 79 2.0 2.0 0.00 0.00 0.00 80 1017.7
20260901024421 81 92 1.0 2.0 0.00 0.00 0.00 80 1017.7
20260901024157 81 92 2.0 2.0 0.00 0.00 0.00 80 1017.5
20260901023919 81 100 0.0 1.0 0.00 0.00 0.00 80 1017.5
20260901023419 81 103 1.0 2.0 0.00 0.00 0.00 81 1017.5
20260901023155 81 106 0.0 0.0 0.00 0.00 0.00 81 1017.5
20260901022920 81 106 0.0 0.0 0.00 0.00 0.00 81 1017.5
20260901022420 81 106 1.0 2.0 0.00 0.00 0.00 80 1017.4
20260901022156 81 106 1.0 2.0 0.00 0.00 0.00 80 1017.4
20260901021920 81 106 1.0 2.0 0.00 0.00 0.00 80 1017.4
20260901021419 81 112 2.0 2.0 0.00 0.00 0.00 80 1017.4
20260901021414 81 123 0.0 3.0 0.00 0.00 0.00 80 1017.4
20260901021157 81 123 0.0 3.0 0.00 0.00 0.00 80 1017.4
20260901020919 81 117 1.0 2.0 0.00 0.00 0.00 80 1017.4
20260901020419 81 104 0.0 0.0 0.00 0.00 0.00 80 1017.4
20260901020155 81 107 0.0 0.0 0.00 0.00 0.00 80 1017.4
20260901015920 81 107 0.0 0.0 0.00 0.00 0.00 80 1017.4
20260901015420 81 96 0.0 0.0 0.00 0.00 0.00 80 1017.2
20260901015156 82 97 0.0 0.0 0.00 0.00 0.00 80 1017.2
20260901014920 82 97 0.0 0.0 0.00 0.00 0.00 80 1017.2
20260901014419 82 88 0.0 0.0 0.00 0.00 0.00 79 1017.2
20260901014157 82 76 1.0 2.0 0.00 0.00 0.00 79 1017.0
20260901013919 82 82 0.0 1.0 0.00 0.00 0.00 79 1017.0
20260901013419 82 88 1.0 1.0 0.00 0.00 0.00 79 1017.0
20260901013155 82 107 0.0 2.0 0.00 0.00 0.00 79 1017.0
20260901012920 82 103 2.0 2.0 0.00 0.00 0.00 78 1017.0
20260901012420 82 79 1.0 2.0 0.00 0.00 0.00 78 1016.9
20260901012156 82 92 2.0 3.0 0.00 0.00 0.00 78 1016.9
20260901011920 82 90 0.0 1.0 0.00 0.00 0.00 78 1016.9
20260901011420 82 117 1.0 4.0 0.00 0.00 0.00 78 1016.9
20260901011155 82 78 0.0 2.0 0.00 0.00 0.00 78 1016.9
20260901010920 82 97 2.0 2.0 0.00 0.00 0.00 78 1016.9
20260901010419 82 69 3.0 3.0 0.00 0.00 0.00 78 1016.9
20260901010156 82 69 1.0 3.0 0.00 0.00 0.00 78 1016.9
20260901005919 82 86 3.0 3.0 0.00 0.00 0.00 78 1016.9
20260901005419 82 104 3.0 3.0 0.00 0.00 0.00 78 1016.8
20260901005156 82 99 2.0 3.0 0.00 0.00 0.00 78 1016.8
20260901004920 82 49 1.0 3.0 0.00 0.00 0.00 79 1016.8
20260901004420 82 68 2.0 3.0 0.00 0.00 0.00 79 1016.8
20260901004157 82 69 1.0 2.0 0.00 0.00 0.00 79 1016.6
20260901003920 82 76 1.0 2.0 0.00 0.00 0.00 79 1016.6
20260901003419 83 65 1.0 1.0 0.00 0.00 0.00 79 1016.6
20260901003156 83 75 1.0 2.0 0.00 0.00 0.00 79 1016.6
20260901002920 83 64 1.0 2.0 0.00 0.00 0.00 79 1016.6
20260901002420 83 64 1.0 1.0 0.00 0.00 0.00 78 1016.6
20260901002247 83 64 0.0 1.0 0.00 0.00 0.00 78 1016.6
20260901002158 83 64 0.0 1.0 0.00 0.00 0.00 78 1016.6
20260901001921 83 64 1.0 3.0 0.00 0.00 0.00 78 1016.6
20260901001419 84 55 1.0 1.0 0.00 0.00 0.00 77 1016.6
20260901001156 84 56 1.0 1.0 0.00 0.00 0.00 77 1016.7
20260901000919 84 79 1.0 1.0 0.00 0.00 0.00 77 1016.7
20260901000420 84 88 2.0 2.0 0.00 0.00 0.00 76 1016.7
20260901000156 84 80 1.0 1.0 0.00 0.00 0.00 76 1016.7
20260831235920 84 109 1.0 2.0 0.00 0.00 0.00 77 1016.7
20260831235420 85 54 1.0 2.0 0.00 0.00 0.00 76 1016.9
20260831235157 85 59 1.0 2.0 0.00 0.00 0.00 76 1016.9
20260831234920 85 68 0.0 1.0 0.00 0.00 0.00 75 1016.9
20260831234419 85 68 1.0 1.0 0.00 0.00 0.00 75 1016.9
20260831234156 85 89 0.0 1.0 0.00 0.00 0.00 74 1016.7
20260831233919 85 92 1.0 2.0 0.00 0.00 0.00 74 1016.7
20260831233420 86 64 1.0 2.0 0.00 0.00 0.00 73 1016.7
20260831233156 86 64 0.0 1.0 0.00 0.00 0.00 73 1016.7
20260831232919 86 64 1.0 1.0 0.00 0.00 0.00 73 1016.7
20260831232420 86 69 1.0 1.0 0.00 0.00 0.00 72 1016.8
20260831232157 86 69 2.0 2.0 0.00 0.00 0.00 72 1016.8
20260831231920 86 82 2.0 3.0 0.00 0.00 0.00 72 1016.8
20260831231419 86 69 2.0 2.0 0.00 0.00 0.00 71 1016.8
20260831231157 86 78 1.0 1.0 0.00 0.00 0.00 71 1016.8
20260831230919 86 86 0.0 2.0 0.00 0.00 0.00 70 1016.8
20260831230420 86 59 1.0 1.0 0.00 0.00 0.00 70 1016.8
20260831230156 86 59 1.0 1.0 0.00 0.00 0.00 70 1016.8
20260831225919 86 61 1.0 1.0 0.00 0.00 0.00 69 1016.8
20260831225421 87 73 0.0 1.0 0.00 0.00 0.00 70 1016.8
20260831225157 87 99 2.0 3.0 0.00 0.00 0.00 70 1016.8
20260831224919 87 76 1.0 3.0 0.00 0.00 0.00 69 1016.8
20260831224420 87 114 1.0 1.0 0.00 0.00 0.00 69 1016.8
20260831224155 87 127 1.0 2.0 0.00 0.00 0.00 70 1016.9
20260831223920 87 144 0.0 2.0 0.00 0.00 0.00 69 1016.9
20260831223419 87 117 3.0 3.0 0.00 0.00 0.00 70 1016.9
20260831223157 87 76 1.0 3.0 0.00 0.00 0.00 69 1016.9
20260831222920 87 80 1.0 2.0 0.00 0.00 0.00 69 1016.9
20260831222420 88 100 1.0 3.0 0.00 0.00 0.00 68 1016.9
20260831222158 88 56 2.0 2.0 0.00 0.00 0.00 69 1016.9
20260831221919 88 86 2.0 2.0 0.00 0.00 0.00 68 1016.9
20260831221420 88 86 3.0 3.0 0.00 0.00 0.00 68 1016.9
20260831221155 88 143 1.0 5.0 0.00 0.00 0.00 67 1017.0
20260831220920 88 120 0.0 4.0 0.00 0.00 0.00 67 1017.0
20260831220419 88 138 1.0 2.0 0.00 0.00 0.00 67 1017.0
20260831220157 88 79 2.0 2.0 0.00 0.00 0.00 67 1017.0
20260831215920 88 62 2.0 6.0 0.00 0.00 0.00 67 1017.0
20260831215420 88 68 2.0 3.0 0.00 0.00 0.00 65 1017.0
20260831215156 88 121 1.0 1.0 0.00 0.00 0.00 66 1017.0
20260831214920 88 131 0.0 2.0 0.00 0.00 0.00 65 1017.0
20260831214419 88 127 3.0 3.0 0.00 0.00 0.00 65 1017.0
20260831214156 88 119 2.0 3.0 0.00 0.00 0.00 64 1017.1
20260831213919 88 89 3.0 4.0 0.00 0.00 0.00 66 1017.1
20260831213420 89 76 2.0 3.0 0.00 0.00 0.00 65 1017.1
20260831213155 89 17 1.0 1.0 0.00 0.00 0.00 65 1017.1
20260831212921 89 45 1.0 2.0 0.00 0.00 0.00 65 1017.1
20260831212419 89 44 2.0 5.0 0.00 0.00 0.00 63 1017.3
20260831212156 89 64 0.0 2.0 0.00 0.00 0.00 63 1017.3
20260831211920 89 3 1.0 3.0 0.00 0.00 0.00 64 1017.3
20260831211421 90 47 3.0 5.0 0.00 0.00 0.00 63 1017.3
20260831211158 90 73 0.0 4.0 0.00 0.00 0.00 63 1017.4
20260831210919 90 106 3.0 3.0 0.00 0.00 0.00 63 1017.4
20260831210420 90 95 1.0 3.0 0.00 0.00 0.00 61 1017.4
20260831210226 90 80 0.0 1.0 0.00 0.00 0.00 60 1017.4
20260831210155 90 80 0.0 1.0 0.00 0.00 0.00 60 1017.4
20260831205921 90 78 2.0 4.0 0.00 0.00 0.00 60 1017.4
20260831205419 91 95 4.0 4.0 0.00 0.00 0.00 64 1017.4
20260831205156 91 357 1.0 2.0 0.00 0.00 0.00 63 1017.4
20260831204920 91 20 0.0 4.0 0.00 0.00 0.00 62 1017.4
20260831204420 91 126 1.0 2.0 0.00 0.00 0.00 60 1017.4